Index of /20260430/WXO-DD/model_gdps/15km/00/183
Name Last modified Size Description
Parent Directory -
20260430T00Z_MSC_GDPS_AirTemp_AGL-120m_LatLon0.15_PT183H.grib2 2026-04-30 04:33 907K
20260430T00Z_MSC_GDPS_AirTemp_AGL-2m_LatLon0.15_PT183H.grib2 2026-04-30 04:33 1.0M
20260430T00Z_MSC_GDPS_AirTemp_AGL-40m_LatLon0.15_PT183H.grib2 2026-04-30 04:33 808K
20260430T00Z_MSC_GDPS_AirTemp_AGL-80m_LatLon0.15_PT183H.grib2 2026-04-30 04:33 915K
20260430T00Z_MSC_GDPS_AirTemp_IsbL-0001_LatLon0.15_PT183H.grib2 2026-04-30 04:33 663K
20260430T00Z_MSC_GDPS_AirTemp_IsbL-0005_LatLon0.15_PT183H.grib2 2026-04-30 04:33 693K
20260430T00Z_MSC_GDPS_AirTemp_IsbL-0500_LatLon0.15_PT183H.grib2 2026-04-30 04:33 1.0M
20260430T00Z_MSC_GDPS_AirTemp_IsbL-0700_LatLon0.15_PT183H.grib2 2026-04-30 04:33 962K
20260430T00Z_MSC_GDPS_AirTemp_IsbL-0850_LatLon0.15_PT183H.grib2 2026-04-30 04:33 1.1M
20260430T00Z_MSC_GDPS_AirTemp_IsbL-0925_LatLon0.15_PT183H.grib2 2026-04-30 04:33 1.1M
20260430T00Z_MSC_GDPS_AirTemp_IsbL-1000_LatLon0.15_PT183H.grib2 2026-04-30 04:33 1.1M
20260430T00Z_MSC_GDPS_Albedo_Sfc_LatLon0.15_PT183H.grib2 2026-04-30 04:33 242K
20260430T00Z_MSC_GDPS_ConvectivePrecip-Accum_Sfc_LatLon0.15_PT183H.grib2 2026-04-30 04:33 3.8M
20260430T00Z_MSC_GDPS_DewPointDepression_AGL-2m_LatLon0.15_PT183H.grib2 2026-04-30 04:33 765K
20260430T00Z_MSC_GDPS_DewPointDepression_IsbL-0500_LatLon0.15_PT183H.grib2 2026-04-30 04:33 1.0M
20260430T00Z_MSC_GDPS_DewPointDepression_IsbL-0700_LatLon0.15_PT183H.grib2 2026-04-30 04:33 1.1M
20260430T00Z_MSC_GDPS_DewPointDepression_IsbL-0850_LatLon0.15_PT183H.grib2 2026-04-30 04:33 1.2M
20260430T00Z_MSC_GDPS_DewPointDepression_IsbL-0925_LatLon0.15_PT183H.grib2 2026-04-30 04:33 1.0M
20260430T00Z_MSC_GDPS_DewPointDepression_IsbL-1000_LatLon0.15_PT183H.grib2 2026-04-30 04:33 969K
20260430T00Z_MSC_GDPS_DewPoint_AGL-2m_LatLon0.15_PT183H.grib2 2026-04-30 04:33 612K
20260430T00Z_MSC_GDPS_DownwardLongwaveRadiationFlux-Accum_Sfc_LatLon0.15_PT183H.grib2 2026-04-30 04:33 654K
20260430T00Z_MSC_GDPS_DownwardShortwaveRadiationFlux-Accum_Sfc_LatLon0.15_PT183H.grib2 2026-04-30 04:33 840K
20260430T00Z_MSC_GDPS_FreezingRain-Accum_Sfc_LatLon0.15_PT183H.grib2 2026-04-30 04:33 380K
20260430T00Z_MSC_GDPS_GeopotentialHeight_IsbL-0001_LatLon0.15_PT183H.grib2 2026-04-30 04:33 436K
20260430T00Z_MSC_GDPS_GeopotentialHeight_IsbL-0005_LatLon0.15_PT183H.grib2 2026-04-30 04:33 490K
20260430T00Z_MSC_GDPS_GeopotentialHeight_IsbL-0500_LatLon0.15_PT183H.grib2 2026-04-30 04:33 531K
20260430T00Z_MSC_GDPS_GeopotentialHeight_IsbL-0700_LatLon0.15_PT183H.grib2 2026-04-30 04:33 690K
20260430T00Z_MSC_GDPS_GeopotentialHeight_IsbL-0850_LatLon0.15_PT183H.grib2 2026-04-30 04:33 719K
20260430T00Z_MSC_GDPS_GeopotentialHeight_IsbL-0925_LatLon0.15_PT183H.grib2 2026-04-30 04:33 736K
20260430T00Z_MSC_GDPS_GeopotentialHeight_IsbL-1000_LatLon0.15_PT183H.grib2 2026-04-30 04:33 789K
20260430T00Z_MSC_GDPS_IcePellets-Accum_Sfc_LatLon0.15_PT183H.grib2 2026-04-30 04:33 125K
20260430T00Z_MSC_GDPS_LatentHeatNetFlux_Sfc_LatLon0.15_PT183H.grib2 2026-04-30 04:33 722K
20260430T00Z_MSC_GDPS_NetLongwaveRadiationFlux-Accum_Sfc_LatLon0.15_PT183H.grib2 2026-04-30 04:33 877K
20260430T00Z_MSC_GDPS_NetShortwaveRadiationFlux-Accum_Sfc_LatLon0.15_PT183H.grib2 2026-04-30 04:33 838K
20260430T00Z_MSC_GDPS_O3MixingRatio_Sfc_LatLon0.15_PT183H.grib2 2026-04-30 04:51 2.2M
20260430T00Z_MSC_GDPS_O3_EAtm_LatLon0.15_PT183H.grib2 2026-04-30 04:51 2.4M
20260430T00Z_MSC_GDPS_PlanetaryBoundaryLayerHeight_Sfc_LatLon0.15_PT183H.grib2 2026-04-30 04:33 2.5M
20260430T00Z_MSC_GDPS_Precip-Accum_Sfc_LatLon0.15_PT183H.grib2 2026-04-30 04:33 5.4M
20260430T00Z_MSC_GDPS_PrecipRate_Sfc_LatLon0.15_PT183H.grib2 2026-04-30 04:33 2.9M
20260430T00Z_MSC_GDPS_Pressure_MSL_LatLon0.15_PT183H.grib2 2026-04-30 04:33 826K
20260430T00Z_MSC_GDPS_Pressure_Sfc_LatLon0.15_PT183H.grib2 2026-04-30 04:33 1.1M
20260430T00Z_MSC_GDPS_RadiativeTemp_Sfc_LatLon0.15_PT183H.grib2 2026-04-30 04:33 496K
20260430T00Z_MSC_GDPS_Rain-Accum_Sfc_LatLon0.15_PT183H.grib2 2026-04-30 04:33 4.2M
20260430T00Z_MSC_GDPS_RelativeHumidity_AGL-2m_LatLon0.15_PT183H.grib2 2026-04-30 04:33 1.0M
20260430T00Z_MSC_GDPS_Runoff-Accum_Sfc_LatLon0.15_PT183H.grib2 2026-04-30 04:33 125K
20260430T00Z_MSC_GDPS_SensibleHeatNetFlux_Sfc_LatLon0.15_PT183H.grib2 2026-04-30 04:33 480K
20260430T00Z_MSC_GDPS_Snow-Accum_Sfc_LatLon0.15_PT183H.grib2 2026-04-30 04:33 2.1M
20260430T00Z_MSC_GDPS_SnowDepth_Sfc_LatLon0.15_PT183H.grib2 2026-04-30 04:33 1.7M
20260430T00Z_MSC_GDPS_SoilTemp_DBS-0to10cm_LatLon0.15_PT183H.grib2 2026-04-30 04:33 515K
20260430T00Z_MSC_GDPS_SoilTemp_Sfc_LatLon0.15_PT183H.grib2 2026-04-30 04:33 586K
20260430T00Z_MSC_GDPS_SoilVolumetricWaterContent_DBS-0to10cm_LatLon0.15_PT183H.grib2 2026-04-30 04:33 593K
20260430T00Z_MSC_GDPS_SoilVolumetricWaterContent_DBS-0to1cm_LatLon0.15_PT183H.grib2 2026-04-30 04:33 650K
20260430T00Z_MSC_GDPS_SpecificHumidity_AGL-120m_LatLon0.15_PT183H.grib2 2026-04-30 04:33 1.1M
20260430T00Z_MSC_GDPS_SpecificHumidity_AGL-2m_LatLon0.15_PT183H.grib2 2026-04-30 04:33 1.2M
20260430T00Z_MSC_GDPS_SpecificHumidity_AGL-40m_LatLon0.15_PT183H.grib2 2026-04-30 04:33 1.1M
20260430T00Z_MSC_GDPS_SpecificHumidity_AGL-80m_LatLon0.15_PT183H.grib2 2026-04-30 04:33 1.1M
20260430T00Z_MSC_GDPS_SpecificHumidity_IsbL-0001_LatLon0.15_PT183H.grib2 2026-04-30 04:33 1.2M
20260430T00Z_MSC_GDPS_SpecificHumidity_IsbL-0005_LatLon0.15_PT183H.grib2 2026-04-30 04:33 1.1M
20260430T00Z_MSC_GDPS_SpecificHumidity_IsbL-0500_LatLon0.15_PT183H.grib2 2026-04-30 04:33 1.5M
20260430T00Z_MSC_GDPS_SpecificHumidity_IsbL-0700_LatLon0.15_PT183H.grib2 2026-04-30 04:33 1.6M
20260430T00Z_MSC_GDPS_SpecificHumidity_IsbL-0850_LatLon0.15_PT183H.grib2 2026-04-30 04:33 2.0M
20260430T00Z_MSC_GDPS_SpecificHumidity_IsbL-0925_LatLon0.15_PT183H.grib2 2026-04-30 04:33 1.6M
20260430T00Z_MSC_GDPS_SpecificHumidity_IsbL-1000_LatLon0.15_PT183H.grib2 2026-04-30 04:33 1.5M
20260430T00Z_MSC_GDPS_SpecificHumidity_Sfc_LatLon0.15_PT183H.grib2 2026-04-30 04:33 683K
20260430T00Z_MSC_GDPS_Thickness_IsbL-0850to0700_LatLon0.15_PT183H.grib2 2026-04-30 04:33 474K
20260430T00Z_MSC_GDPS_Thickness_IsbL-1000to0500_LatLon0.15_PT183H.grib2 2026-04-30 04:33 378K
20260430T00Z_MSC_GDPS_Thickness_IsbL-1000to0850_LatLon0.15_PT183H.grib2 2026-04-30 04:33 491K
20260430T00Z_MSC_GDPS_TotalCloudCover_Sfc_LatLon0.15_PT183H.grib2 2026-04-30 04:33 820K
20260430T00Z_MSC_GDPS_UVIndex-ClearSky_Sfc_LatLon0.15_PT183H.grib2 2026-04-30 04:51 1.0M
20260430T00Z_MSC_GDPS_UVIndex_Sfc_LatLon0.15_PT183H.grib2 2026-04-30 04:51 1.5M
20260430T00Z_MSC_GDPS_UpwardLongwaveRadiationFlux_NTAtm_LatLon0.15_PT183H.grib2 2026-04-30 04:33 837K
20260430T00Z_MSC_GDPS_VerticalVelocity_IsbL-0500_LatLon0.15_PT183H.grib2 2026-04-30 04:33 1.3M
20260430T00Z_MSC_GDPS_VerticalVelocity_IsbL-0700_LatLon0.15_PT183H.grib2 2026-04-30 04:33 1.2M
20260430T00Z_MSC_GDPS_VerticalVelocity_IsbL-0850_LatLon0.15_PT183H.grib2 2026-04-30 04:33 1.3M
20260430T00Z_MSC_GDPS_WindDir_AGL-10m_LatLon0.15_PT183H.grib2 2026-04-30 04:33 1.3M
20260430T00Z_MSC_GDPS_WindDir_AGL-120m_LatLon0.15_PT183H.grib2 2026-04-30 04:33 1.3M
20260430T00Z_MSC_GDPS_WindDir_AGL-40m_LatLon0.15_PT183H.grib2 2026-04-30 04:33 1.4M
20260430T00Z_MSC_GDPS_WindDir_AGL-80m_LatLon0.15_PT183H.grib2 2026-04-30 04:33 1.4M
20260430T00Z_MSC_GDPS_WindDir_IsbL-0001_LatLon0.15_PT183H.grib2 2026-04-30 04:33 661K
20260430T00Z_MSC_GDPS_WindDir_IsbL-0005_LatLon0.15_PT183H.grib2 2026-04-30 04:33 808K
20260430T00Z_MSC_GDPS_WindDir_IsbL-0500_LatLon0.15_PT183H.grib2 2026-04-30 04:33 1.4M
20260430T00Z_MSC_GDPS_WindDir_IsbL-0700_LatLon0.15_PT183H.grib2 2026-04-30 04:33 1.6M
20260430T00Z_MSC_GDPS_WindDir_IsbL-0850_LatLon0.15_PT183H.grib2 2026-04-30 04:33 1.9M
20260430T00Z_MSC_GDPS_WindDir_IsbL-0925_LatLon0.15_PT183H.grib2 2026-04-30 04:33 2.0M
20260430T00Z_MSC_GDPS_WindDir_IsbL-1000_LatLon0.15_PT183H.grib2 2026-04-30 04:33 2.0M
20260430T00Z_MSC_GDPS_WindGust-Max_AGL-10m_LatLon0.15_PT183H.grib2 2026-04-30 04:33 2.2M
20260430T00Z_MSC_GDPS_WindGust-Min_AGL-10m_LatLon0.15_PT183H.grib2 2026-04-30 04:33 2.2M
20260430T00Z_MSC_GDPS_WindGust_AGL-10m_LatLon0.15_PT183H.grib2 2026-04-30 04:33 2.1M
20260430T00Z_MSC_GDPS_WindSpeed_AGL-10m_LatLon0.15_PT183H.grib2 2026-04-30 04:33 1.1M
20260430T00Z_MSC_GDPS_WindSpeed_AGL-120m_LatLon0.15_PT183H.grib2 2026-04-30 04:33 1.2M
20260430T00Z_MSC_GDPS_WindSpeed_AGL-40m_LatLon0.15_PT183H.grib2 2026-04-30 04:33 1.2M
20260430T00Z_MSC_GDPS_WindSpeed_AGL-80m_LatLon0.15_PT183H.grib2 2026-04-30 04:33 1.2M
20260430T00Z_MSC_GDPS_WindSpeed_IsbL-0001_LatLon0.15_PT183H.grib2 2026-04-30 04:33 648K
20260430T00Z_MSC_GDPS_WindSpeed_IsbL-0005_LatLon0.15_PT183H.grib2 2026-04-30 04:33 690K
20260430T00Z_MSC_GDPS_WindSpeed_IsbL-0500_LatLon0.15_PT183H.grib2 2026-04-30 04:33 1.1M
20260430T00Z_MSC_GDPS_WindSpeed_IsbL-0700_LatLon0.15_PT183H.grib2 2026-04-30 04:33 1.5M
20260430T00Z_MSC_GDPS_WindSpeed_IsbL-0850_LatLon0.15_PT183H.grib2 2026-04-30 04:33 1.7M
20260430T00Z_MSC_GDPS_WindSpeed_IsbL-0925_LatLon0.15_PT183H.grib2 2026-04-30 04:33 1.8M
20260430T00Z_MSC_GDPS_WindSpeed_IsbL-1000_LatLon0.15_PT183H.grib2 2026-04-30 04:33 1.9M
20260430T00Z_MSC_GDPS_WindU_AGL-10m_LatLon0.15_PT183H.grib2 2026-04-30 04:33 1.3M
20260430T00Z_MSC_GDPS_WindU_AGL-120m_LatLon0.15_PT183H.grib2 2026-04-30 04:33 1.0M
20260430T00Z_MSC_GDPS_WindU_AGL-40m_LatLon0.15_PT183H.grib2 2026-04-30 04:33 964K
20260430T00Z_MSC_GDPS_WindU_AGL-80m_LatLon0.15_PT183H.grib2 2026-04-30 04:33 1.0M
20260430T00Z_MSC_GDPS_WindU_IsbL-0001_LatLon0.15_PT183H.grib2 2026-04-30 04:33 503K
20260430T00Z_MSC_GDPS_WindU_IsbL-0005_LatLon0.15_PT183H.grib2 2026-04-30 04:33 689K
20260430T00Z_MSC_GDPS_WindU_IsbL-0500_LatLon0.15_PT183H.grib2 2026-04-30 04:33 1.1M
20260430T00Z_MSC_GDPS_WindU_IsbL-0700_LatLon0.15_PT183H.grib2 2026-04-30 04:33 1.2M
20260430T00Z_MSC_GDPS_WindU_IsbL-0850_LatLon0.15_PT183H.grib2 2026-04-30 04:33 1.4M
20260430T00Z_MSC_GDPS_WindU_IsbL-0925_LatLon0.15_PT183H.grib2 2026-04-30 04:33 1.5M
20260430T00Z_MSC_GDPS_WindU_IsbL-1000_LatLon0.15_PT183H.grib2 2026-04-30 04:33 1.4M
20260430T00Z_MSC_GDPS_WindV_AGL-10m_LatLon0.15_PT183H.grib2 2026-04-30 04:33 1.3M
20260430T00Z_MSC_GDPS_WindV_AGL-120m_LatLon0.15_PT183H.grib2 2026-04-30 04:33 969K
20260430T00Z_MSC_GDPS_WindV_AGL-40m_LatLon0.15_PT183H.grib2 2026-04-30 04:33 963K
20260430T00Z_MSC_GDPS_WindV_AGL-80m_LatLon0.15_PT183H.grib2 2026-04-30 04:33 968K
20260430T00Z_MSC_GDPS_WindV_IsbL-0001_LatLon0.15_PT183H.grib2 2026-04-30 04:33 715K
20260430T00Z_MSC_GDPS_WindV_IsbL-0005_LatLon0.15_PT183H.grib2 2026-04-30 04:33 783K
20260430T00Z_MSC_GDPS_WindV_IsbL-0500_LatLon0.15_PT183H.grib2 2026-04-30 04:33 1.1M
20260430T00Z_MSC_GDPS_WindV_IsbL-0700_LatLon0.15_PT183H.grib2 2026-04-30 04:33 1.2M
20260430T00Z_MSC_GDPS_WindV_IsbL-0850_LatLon0.15_PT183H.grib2 2026-04-30 04:33 1.4M
20260430T00Z_MSC_GDPS_WindV_IsbL-0925_LatLon0.15_PT183H.grib2 2026-04-30 04:33 1.4M
20260430T00Z_MSC_GDPS_WindV_IsbL-1000_LatLon0.15_PT183H.grib2 2026-04-30 04:33 1.4M